CZ-3C DEB, 40177

Orbit data source: Space-Track

CZ-3C DEB, 40177 is space debris in HEO originally from a launch on Sun, 31 Oct 2010 UTC launched from the Xichang Space Center, China (XSC). Debris objects in space refer to the collection of defunct objects orbiting the Earth. Examples of debris include non-operational satellites, rocket bodies, and fragments generated from explosions, collisions, or faulty payload assembly.

Loading next visibility...
CZ-3C DEB details
Identifier
40177, 2010-057AF
Orbit
HEO
Last TLE update5 months ago
Origin
Flag of CNCASC (CN / PRC)
ManufacturerCALT
MissionSpacecraft
Bus & MotorUnknown
MassUnknown
Launch date (UTC)
2010-10-31 (14 years ago)
Launch vehicleUnknown
Launch site
Xichang Space Center, China (XSC)
Object type
Payload
Rocket body
Debris
Shape & HBRUnknown
Radar Cross SectionMedium (>0.1 m² and <1 m²)

Expand to show TLE details & history

TLE from 5 months ago
0 CZ-3C DEB
1 40177U 10057AF  24222.22662896  .00001864  00000-0  20836-1 0  9994
2 40177  17.6309 314.2845 7214565 223.2477  49.5393  2.21111368 91436
Epoch: 2024-08-09T05:26Z
Definitive object data (Epoch: 2024-08-09T05:26:20.742Z)
Latitude0.00026°
Longitude-85.45207°
Altitude18,835.457 km
Speed3.95 km/s
True Right ascension20h 57m 21s
True Declination0° 00' 01"
Sunlit
Object was in daylight at TLE epoch
Visualization TLE readout
Latitude-2.16266°
Longitude51.55955°
Altitude15,231.599 km
Speed4.566 km/s
Apparent Right ascension05h 42m 18s
Apparent Declination-10° 41' 25"
Sunlit
Object is in daylight
Visualization observer readout
Local Sidereal Time15:57:00
Azimuth314.138° NW
Elevation-52.612°
Doppler factor1
Orbital elements
Apogee altitude36,473.852 km
Perigee altitude555.609 km
Semi-major axis24,892.868 km
Eccentricity0.7214565
Inclination17.6309°
RAAN314.2845°
Arg. of periapsis223.2477°
True anomaly136.77467°
Mean anomaly49.5393°
Eccentric anomaly90.87094°
Mean motion0.55263 °/min
BSTAR0.020836
Orbital period651.44 mins
Loading maneuver chart data...
Loading historical data...
Loading historical data...
Loading historical data...
Loading historical data...
Loading historical data...
Loading historical data...
Loading historical data...

CZ-3C DEB Visibility forecast

Observer location: undefined°, undefined

Span
Click to sort rows by Start time (UTC) header in descending order
Start Az.
Max El. time (UTC)
Max El. Az.
Max El.
End time (UTC)
End Az.
10 mins2024-12-26 18:07:48.535Z122.816° SE2024-12-26 18:11:48.535Z114.539° SE10.413°2024-12-26 18:17:48.535Z105.897° ESE
386 mins2024-12-26 21:00:48.535Z86.223° E2024-12-27 01:32:48.535Z114.897° SE24.77°2024-12-27 03:26:48.535Z120.295° SE
|